Port Clinton Carl R Keller Fi, OH

6:12 PM EDT on April 26, 2017 (GMT -0400)
Keller

Weather History for KPCW - February, 2014

Change the Weather History Date:

Thursday, February 6, 2014

  Actual Average (KTTF) Record (KTTF)
Temperature  
Mean Temperature 10 °F -  
Max Temperature 21 °F 30 °F 61 °F (1938)
Min Temperature -2 °F 15 °F -4 °F (2014)
Degree Days  
Heating Degree Days 56    
Moisture  
Dew Point 2 °F    
Average Humidity 73    
Maximum Humidity 85    
Minimum Humidity 61    
Precipitation  
Precipitation 0.00 in - - ()
Sea Level Pressure  
Sea Level Pressure 30.34 in    
Wind  
Wind Speed 6 mph (SW)    
Max Wind Speed 21 mph    
Max Gust Speed -    
Visibility 10 miles    
Events Rain , Snow    
Averages and records for this station are not official NWS values.
T = Trace of Precipitation, MM = Missing Value Source: NWS Daily Summary

Daily Weather History Graph

Daily Weather History Graph

Search for Another Location

Airport or City:

Trip Planner

Search our weather history database for the weather conditions in past years. The results will help you decide how hot, cold, wet, or windy it might be!

Date:

Astronomy

Feb. 06, 2014 Rise Set
Actual Time 7:37 AM EST 5:53 PM EST
Civil Twilight 7:08 AM EST 6:22 PM EST
Nautical Twilight 6:35 AM EST 6:55 PM EST
Astronomical Twilight 6:03 AM EST 7:28 PM EST
Moon 11:24 AM EST (2/6) 12:52 AM EST (2/6)
Length of Visible Light 11h 13m
Length of Day
10h 16m
Waxing Crescent, 49% of the Moon is Illuminated
Feb 6
Waxing Crescent
Feb 6
First Quarter
Feb 14
Full
Feb 22
Last Quarter
Mar 1
New

Hourly Weather History & Observations

Time (EST) Temp. Windchill Dew Point Humidity Pressure Visibility Wind Dir Wind Speed Gust Speed Precip Events Conditions
12:14 AM 10.4 °F - 6.8 °F 85% 30.34 in 10.0 mi Calm Calm - N/A   Clear
12:34 AM 10.4 °F - 6.8 °F 85% 30.34 in 10.0 mi Calm Calm - N/A   Clear
12:54 AM 10.4 °F - 5.0 °F 79% 30.34 in 10.0 mi Calm Calm - N/A   Clear
1:14 AM 8.6 °F 2.0 °F 3.2 °F 79% 30.35 in 10.0 mi WNW 3.5 mph - N/A   Clear
1:34 AM 5.0 °F - -0.4 °F 78% 30.34 in 10.0 mi Calm Calm - N/A   Clear
1:54 AM 6.1 °F - 1.0 °F 80% 30.34 in 10.0 mi Calm Calm - N/A   Clear
2:14 AM 6.8 °F - 1.4 °F 79% 30.35 in 10.0 mi Calm Calm - N/A   Clear
2:34 AM 1.4 °F - -2.2 °F 85% 30.35 in 10.0 mi Calm Calm - N/A   Clear
2:54 AM 3.0 °F -4.4 °F -2.9 °F 76% 30.35 in 10.0 mi WSW 3.5 mph - N/A   Clear
3:14 AM 3.2 °F -4.2 °F -2.2 °F 78% 30.35 in 10.0 mi WSW 3.5 mph - N/A   Clear
3:34 AM 5.0 °F -4.1 °F -0.4 °F 78% 30.35 in 10.0 mi WSW 4.6 mph - N/A   Clear
3:54 AM 7.2 °F -1.5 °F 1.0 °F 76% 30.35 in 10.0 mi West 4.6 mph - N/A   Unknown
4:14 AM 8.6 °F 0.1 °F 1.4 °F 73% 30.35 in 10.0 mi WSW 4.6 mph - N/A   Clear
4:34 AM 8.6 °F -1.3 °F 1.4 °F 73% 30.35 in 10.0 mi WSW 5.8 mph - N/A   Clear
4:54 AM 7.2 °F -3.0 °F 1.0 °F 76% 30.36 in 10.0 mi WSW 5.8 mph - N/A   Clear
5:14 AM 1.4 °F - -5.8 °F 72% 30.35 in 10.0 mi Calm Calm - N/A   Clear
5:34 AM 1.4 °F -6.2 °F -4.0 °F 78% 30.36 in 10.0 mi SW 3.5 mph - N/A   Clear
5:54 AM 3.0 °F -6.4 °F -1.8 °F 80% 30.36 in 10.0 mi SW 4.6 mph - N/A   Clear
6:13 AM 5.0 °F -4.1 °F -0.4 °F 78% 30.37 in 10.0 mi SW 4.6 mph - N/A   Clear
6:34 AM 1.4 °F -6.2 °F -4.0 °F 78% 30.36 in 10.0 mi SW 3.5 mph - N/A   Scattered Clouds
6:54 AM 1.4 °F -6.2 °F -4.0 °F 78% 30.35 in 10.0 mi WSW 3.5 mph - N/A   Partly Cloudy
7:14 AM -2.2 °F - -5.8 °F 85% 30.37 in 10.0 mi Calm Calm - N/A   Clear
7:34 AM -0.4 °F - -5.8 °F 78% 30.37 in 10.0 mi Calm Calm - N/A   Partly Cloudy
7:45 AM -0.9 °F - -6.0 °F 79% 30.37 in 3.0 mi Calm Calm - N/A   Haze
8:14 AM 1.4 °F - -2.2 °F 85% 30.37 in 10.0 mi Calm Calm - N/A   Overcast
8:34 AM 5.0 °F -2.1 °F -0.4 °F 78% 30.37 in 10.0 mi South 3.5 mph - N/A   Overcast
8:43 AM 5.0 °F -4.1 °F 1.4 °F 85% 30.38 in 10.0 mi SSW 4.6 mph - N/A   Overcast
9:14 AM 8.6 °F -1.3 °F 3.2 °F 79% 30.38 in 10.0 mi SW 5.8 mph - N/A   Overcast
9:34 AM 8.6 °F 0.1 °F 3.2 °F 79% 30.38 in 10.0 mi SSW 4.6 mph - N/A   Overcast
9:37 AM 8.6 °F 0.1 °F 3.2 °F 79% 30.38 in 10.0 mi SSW 4.6 mph - N/A   Overcast
10:14 AM 12.2 °F 0.7 °F 6.8 °F 79% 30.37 in 10.0 mi South 8.1 mph - N/A   Overcast
10:34 AM 14.0 °F 3.9 °F 6.8 °F 73% 30.37 in 10.0 mi SSW 6.9 mph - N/A   Overcast
10:54 AM 15.8 °F 6.1 °F 6.8 °F 68% 30.37 in 10.0 mi SSW 6.9 mph - N/A   Mostly Cloudy
11:14 AM 17.6 °F 7.3 °F 8.6 °F 68% 30.39 in 10.0 mi SW 8.1 mph - N/A   Clear
11:34 AM 17.6 °F 6.4 °F 8.6 °F 68% 30.38 in 10.0 mi SSW 9.2 mph - N/A   Clear
11:54 AM 19.0 °F 6.8 °F 9.1 °F 65% 30.37 in 10.0 mi SW 11.5 mph - N/A   Mostly Cloudy
12:14 PM 19.4 °F 7.2 °F 10.4 °F 68% 30.36 in 10.0 mi SW 11.5 mph - N/A   Overcast
12:34 PM 19.4 °F 6.0 °F 10.4 °F 68% 30.36 in 10.0 mi SSW 13.8 mph - N/A   Overcast
12:54 PM 19.4 °F 6.6 °F 10.4 °F 68% 30.35 in 10.0 mi SW 12.7 mph - N/A Rain Light Freezing Rain
1:14 PM 19.4 °F 7.2 °F 10.4 °F 68% 30.33 in 10.0 mi SSW 11.5 mph - N/A Rain Light Freezing Rain
1:33 PM 21.2 °F 8.3 °F 12.2 °F 68% 30.32 in 10.0 mi SW 13.8 mph - N/A   Overcast
1:57 PM 19.4 °F 5.5 °F 12.2 °F 74% 30.32 in 8.0 mi SSW 15.0 mph - N/A Snow Light Snow
2:14 PM 19.4 °F 6.0 °F 12.2 °F 74% 30.31 in 5.0 mi SSW 13.8 mph - N/A Snow Light Snow
2:34 PM 21.2 °F 9.5 °F 14.0 °F 74% 30.30 in 4.0 mi SSW 11.5 mph - N/A Snow Light Snow
2:54 PM 21.2 °F 6.4 °F 14.0 °F 74% 30.30 in 8.0 mi SW 18.4 mph - N/A Snow Light Snow
3:12 PM 19.4 °F 5.0 °F 14.0 °F 80% 30.30 in 7.0 mi SW 16.1 mph - N/A Snow Light Snow
3:34 PM 19.4 °F 5.5 °F 12.2 °F 74% 30.30 in 10.0 mi SW 15.0 mph - N/A Snow Light Snow
3:54 PM 19.4 °F 5.0 °F 12.2 °F 74% 30.30 in 10.0 mi SSW 16.1 mph - N/A   Overcast
4:14 PM 17.6 °F 2.2 °F 10.4 °F 73% 30.30 in 10.0 mi SSW 17.3 mph - N/A   Overcast
4:34 PM 17.6 °F 0.9 °F 8.6 °F 68% 30.30 in 9.0 mi SW 20.7 mph - N/A Rain Light Freezing Rain
4:50 PM 17.6 °F 4.3 °F 8.6 °F 68% - 10.0 mi SSW 12.7 mph - N/A Rain Light Freezing Rain
5:11 PM 15.8 °F 0.9 °F 8.6 °F 73% 30.30 in 10.0 mi SW 15.0 mph - N/A   Mostly Cloudy
5:34 PM 14.0 °F -1.4 °F 6.8 °F 73% 30.30 in 10.0 mi SSW 15.0 mph - N/A   Scattered Clouds
5:57 PM 12.2 °F -3.1 °F 6.8 °F 79% 30.30 in 10.0 mi SSW 13.8 mph - N/A   Overcast
6:14 PM 12.2 °F -4.8 °F 5.0 °F 73% 30.30 in 10.0 mi SSW 17.3 mph - N/A   Overcast
6:34 PM 12.2 °F -5.8 °F 3.2 °F 67% 30.30 in 10.0 mi SW 19.6 mph - N/A   Mostly Cloudy
6:57 PM 8.6 °F -9.5 °F -0.4 °F 67% 30.31 in 10.0 mi SW 17.3 mph - N/A   Clear
7:14 PM 8.6 °F -10.0 °F -0.4 °F 67% 30.31 in 10.0 mi SW 18.4 mph - N/A   Clear
7:34 PM 8.6 °F -9.5 °F -2.2 °F 62% 30.32 in 10.0 mi SSW 17.3 mph - N/A   Clear
7:54 PM 7.2 °F -10.8 °F -1.8 °F 67% 30.32 in 10.0 mi SSW 16.1 mph - N/A   Clear
8:14 PM 6.8 °F -10.7 °F -2.2 °F 67% 30.32 in 10.0 mi SSW 15.0 mph - N/A   Clear
8:34 PM 5.0 °F -13.6 °F -4.0 °F 66% 30.33 in 10.0 mi SSW 16.1 mph - N/A   Clear
8:54 PM 4.1 °F -14.1 °F -4.9 °F 66% 30.34 in 10.0 mi SSW 15.0 mph - N/A   Clear
9:14 PM 3.2 °F -14.6 °F -5.8 °F 66% 30.34 in 10.0 mi SSW 13.8 mph - N/A   Clear
9:34 PM 3.2 °F -15.3 °F -7.6 °F 61% 30.35 in 10.0 mi SSW 15.0 mph - N/A   Clear
9:54 PM 3.0 °F -15.5 °F -6.9 °F 63% 30.35 in 10.0 mi SSW 15.0 mph - N/A   Clear
10:14 PM 1.4 °F -17.6 °F -7.6 °F 66% 30.35 in 10.0 mi SW 15.0 mph - N/A   Clear
10:34 PM 1.4 °F -16.9 °F -7.6 °F 66% 30.35 in 10.0 mi SW 13.8 mph - N/A   Clear
10:54 PM 2.1 °F -16.0 °F -8.0 °F 63% 30.36 in 10.0 mi SW 13.8 mph - N/A   Clear
11:14 PM 1.4 °F -15.3 °F -9.4 °F 61% 30.35 in 10.0 mi SW 11.5 mph - N/A   Clear
11:34 PM -0.4 °F -17.6 °F -9.4 °F 66% 30.35 in 10.0 mi SW 11.5 mph - N/A   Clear
11:54 PM -0.9 °F -17.4 °F -9.9 °F 66% 30.35 in 10.0 mi SSW 10.4 mph - N/A   Clear